CDT,Max TemperatureF,Mean TemperatureF,Min TemperatureF,Max Dew PointF,MeanDew PointF,Min DewpointF,Max Humidity, Mean Humidity, Min Humidity, Max Sea Level PressureIn, Mean Sea Level PressureIn, Min Sea Level PressureIn, Max VisibilityMiles, Mean VisibilityMiles, Min VisibilityMiles, Max Wind SpeedMPH, Mean Wind SpeedMPH, Max Gust SpeedMPH,PrecipitationIn, CloudCover, Events, WindDirDegrees
2012-10-1,68,51,33,49,39,28,77,51,24,30.15,30.07,29.94,10,10,10,30,14,38,T,1,,360
2012-10-2,77,52,27,32,28,24,92,54,15,30.10,29.94,29.81,10,10,10,20,6,30,0.00,0,,190
2012-10-3,87,65,43,40,35,30,71,42,13,30.12,29.81,29.64,10,10,7,40,15,53,0.00,0,,250
2012-10-4,52,38,23,35,28,23,82,60,38,30.40,30.29,30.13,10,10,10,32,15,44,0.00,2,,345
2012-10-5,47,35,23,31,25,17,88,63,38,30.44,30.38,30.34,10,10,4,16,6,21,T,5,Snow,343
2012-10-6,43,33,23,29,21,17,92,64,36,30.45,30.39,30.31,10,10,10,20,7,0,0.00,2,,315
2012-10-7,56,39,22,28,24,19,96,60,24,30.36,30.17,30.00,10,10,10,28,9,33,0.00,0,,250
2012-10-8,74,54,33,34,26,23,64,40,16,29.99,29.86,29.74,10,10,9,18,7,24,0.00,0,,281
2012-10-9,57,45,32,39,29,19,83,55,27,30.21,30.01,29.81,10,10,10,32,14,40,0.00,2,,349
2012-10-10,66,45,24,34,28,21,81,56,30,30.24,30.12,29.98,10,10,10,24,9,32,0.00,0,,220
2012-10-11,54,43,31,33,29,23,65,52,39,30.37,30.13,29.92,10,10,10,26,12,35,0.00,0,,30
2012-10-12,47,38,28,39,28,18,83,59,34,30.37,30.17,29.91,10,10,10,22,12,28,0.00,3,,149
2012-10-13,81,63,44,49,42,29,100,58,15,29.88,29.73,29.59,10,9,6,25,11,32,0.00,3,,236
2012-10-14,74,55,36,38,33,27,64,43,22,30.04,29.96,29.78,10,10,10,29,14,41,0.00,1,,327
2012-10-15,82,57,32,38,31,26,82,49,16,30.02,29.87,29.67,10,10,8,20,5,25,0.00,0,,223
2012-10-16,78,61,43,41,36,30,70,45,20,29.72,29.55,29.35,10,10,10,25,11,31,0.00,1,,272
2012-10-17,66,54,42,46,27,12,66,42,17,29.75,29.60,29.34,10,10,5,45,26,56,T,1,,313
2012-10-18,55,48,41,28,23,16,46,40,34,29.84,29.75,29.69,10,8,2,53,33,70,0.00,2,Rain,319
2012-10-19,61,47,32,27,19,4,64,37,10,29.92,29.85,29.79,10,10,10,32,14,49,0.00,0,,328
2012-10-20,79,53,27,31,22,12,58,36,13,29.78,29.69,29.60,10,10,4,15,4,22,0.00,0,,153
2012-10-21,71,53,34,42,34,26,74,52,29,29.85,29.73,29.60,10,10,10,23,10,29,0.00,0,,23
2012-10-22,52,48,44,46,43,40,100,86,71,29.92,29.85,29.81,10,6,1,23,11,29,T,7,Rain,19
2012-10-23,63,52,41,52,48,39,100,80,60,29.82,29.73,29.67,10,5,0,16,4,21,0.00,6,Fog,171
2012-10-24,56,45,33,44,39,30,96,72,47,29.91,29.85,29.79,10,8,2,31,18,40,0.09,7,Rain-Snow,12
2012-10-25,37,33,29,34,29,24,92,84,76,30.43,30.05,29.87,10,4,1,32,18,43,0.05,7,Rain-Snow,347
2012-10-26,36,29,22,27,24,21,92,78,63,30.60,30.47,30.33,10,10,2,21,7,25,0.00,6,,290
2012-10-27,46,33,20,28,25,19,100,75,49,30.41,30.28,30.17,10,10,7,23,9,30,0.00,3,,187
2012-10-28,56,37,17,30,25,15,96,66,35,30.25,30.17,30.08,10,10,7,22,8,48,0.00,3,,166
2012-10-29,69,47,25,37,32,24,92,60,28,30.11,30.04,29.99,10,10,10,15,5,22,0.00,1,,143
2012-10-30,65,48,30,36,33,29,89,60,31,30.06,30.01,29.95,10,10,10,9,2,23,0.00,1,,94
2012-10-31,73,52,30,40,33,28,92,59,25,30.07,30.02,29.94,10,10,8,14,3,17,0.00,0,,303